Location: Grange Cassin
(44.4333°N, 6.9833°E)
Time: 14:44:26
(UTC+00:00)

Daily predictions for brighter satellites

Satellite Brightness Start Highest point End
(mag) Time Altitude Azimuth Time Altitude Azimuth Time Altitude Azimuth
ATLAS CENTAUR Rocket 4.4 19:28:41 10° SSW 19:34:45 14° S 19:38:12 10° SSE
SL-4 R/B 3.2 19:31:50 10° NW 19:36:16 44° NNE 19:40:27 10° E
SPOT 1/Viking Rocket 4.1 19:34:11 10° SE 19:39:04 45° ENE 19:43:58 10° N
Terra 4.0 19:40:35 10° E 19:42:25 12° ENE 19:44:15 10° NE
NOSS 3-2 (C) 4.2 19:35:34 10° NW 19:43:11 85° NE 19:51:54 10° SE
JB-3 4.4 19:43:22 10° NNE 19:47:32 83° ESE 19:51:42 10° S
ISS -1.4 19:46:25 10° WNW 19:49:10 23° N 19:51:55 10° NE
CZ-4 R/B 4.4 19:49:30 10° WSW 19:51:06 12° W 19:52:42 10° WNW
Cosmos 44 3.5 19:47:06 10° NW 19:51:22 57° WSW 19:55:36 10° SSE
Cosmos 1697 Rocket 3.1 19:47:20 10° S 19:52:39 43° ESE 19:57:58 10° NE
Meteor 1-10 Rocket 4.2 19:47:41 10° S 19:53:08 64° E 19:58:41 10° NNE
OBJECT-B 3.7 19:52:15 10° WSW 19:53:33 12° W 19:54:52 10° WNW
Cosmos 2208 Rocket 4.1 19:48:05 10° NNW 19:53:34 77° ENE 19:58:57 10° SSE
Cosmos 968 Rocket 3.4 19:49:27 10° SSW 19:54:36 81° ESE 19:59:46 10° NNE
Cosmos 389 Rocket 4.0 19:52:23 10° NNE 19:55:11 22° ENE 19:57:34 12° ESE
Landsat 7 4.1 19:52:12 10° S 19:56:54 72° WSW 20:01:38 10° NNW
ERS-1 Rocket 4.5 19:53:34 10° ESE 19:57:22 22° ENE 20:01:10 10° NNE
Cosmos 2297 Rocket 2.3 19:53:34 10° NNW 19:59:16 87° WSW 20:04:54 10° SSE
CENTAUR R/B 3.7 19:51:54 10° NW 20:00:05 60° WSW 20:08:55 10° SSE
H-2A R/B 2.3 19:56:01 10° N 20:00:05 69° WNW 20:04:09 10° SSW
Cosmos 405 3.1 19:56:54 10° N 20:00:14 51° ENE 20:03:11 12° SSE
USA 238 DEB 4.1 19:56:10 10° NW 20:03:31 78° SW 20:10:55 11° SSE
USA 238 4.0 19:56:17 10° NW 20:03:38 79° SW 20:11:01 11° SSE
Meteor 1-27 Rocket 4.0 19:59:47 10° SSE 20:05:17 51° E 20:10:57 10° NNE
Cosmos 1328 Rocket 3.5 20:02:49 10° S 20:07:06 87° E 20:11:28 10° N
PSLV R/B 4.2 20:03:54 10° N 20:07:57 72° WNW 20:11:57 10° SSW
Cosmos 1315 Rocket 3.3 20:07:37 10° NNW 20:11:40 61° W 20:15:37 10° S
Meteor 1-11 Rocket 3.9 20:10:41 10° N 20:16:41 80° ENE 20:22:25 11° SSE
Ariane Rocket 3.0 20:12:13 10° SSE 20:17:17 89° WSW 20:22:24 10° NNW
BREEZE-M (TANK) 4.0 20:15:05 10° WSW 20:18:45 74° NNW 20:32:38 10° ENE
MetOp-B 4.1 20:14:16 12° SSE 20:19:15 77° ENE 20:24:37 10° N
OAO 3 Rocket 4.3 20:22:24 10° WSW 20:26:34 27° S 20:28:50 19° SE
Cosmos 1933 Rocket 3.7 20:23:58 10° N 20:28:24 60° E 20:31:27 19° SSE
SPOT 3 Rocket 3.5 20:28:28 16° SSE 20:32:37 80° ENE 20:37:46 10° NNW
Cosmos 2219 3.3 20:27:56 10° NNW 20:33:36 78° WSW 20:37:55 17° SSE
Aureole 1 Rocket 2.1 20:35:54 10° SSW 20:39:18 89° SE 20:42:21 10° NNE
Cosmos 1515 3.8 20:35:33 10° SSW 20:39:19 72° W 20:43:06 10° N
Resurs 01 Rocket 2.9 20:37:39 10° SSW 20:41:42 36° W 20:45:48 10° NNW
Cosmos 2082 3.8 20:36:56 10° NNW 20:42:35 67° ENE 20:46:09 23° SE
USA 215 4.1 20:37:45 10° ENE 20:42:59 25° SE 20:45:51 19° SSE
Cosmos 1354 Rocket 4.2 20:39:24 14° S 20:43:40 50° ESE 20:48:47 10° NNE
BREEZE M DEB (TANK) 3.7 20:39:55 10° WNW 20:43:46 79° NNE 20:58:15 10° ESE
SJ 16-02 1.8 20:46:08 25° SSE 20:48:07 41° ESE 20:52:13 10° NNE
Cosmos 1184 Rocket 2.6 20:47:12 22° SSW 20:49:01 76° WNW 20:52:03 10° N
Cosmos 1470 Rocket 4.4 20:45:37 10° NNW 20:49:47 47° W 20:53:22 13° SSW
CZ-4B R/B 4.0 20:48:07 10° NNW 20:50:32 20° WNW 20:52:57 10° WSW
Spot 2 Rocket 3.5 20:48:04 23° SSE 20:51:13 75° ENE 20:56:16 10° N
Cosmos 1486 Rocket 4.3 20:46:21 10° SSW 20:51:38 69° WNW 20:56:56 10° NNE
BREEZE-M DEB (TANK) 2.8 20:49:52 10° NW 20:51:59 37° NNE 20:54:43 13° E
Cosmos 1743 3.1 20:49:20 10° NNW 20:53:04 58° W 20:55:23 21° SSW
Cosmos 2263 Rocket 2.9 20:48:01 10° NNW 20:53:19 42° ENE 20:56:29 22° ESE
OE (NEXTSAT) 4.4 20:50:36 10° SW 20:53:47 45° SSE 20:54:22 40° ESE
RESURS DK-1 3.1 20:54:25 30° SE 20:55:07 33° ESE 20:58:50 10° NE
Cosmos 773 Rocket 4.3 20:52:22 10° NNW 20:57:32 55° ENE 21:00:10 27° SE
Cosmos 1536 3.7 20:54:09 10° NNW 20:57:59 44° W 21:00:49 17° SSW
Cosmos 1340 3.4 20:54:24 10° SSW 20:58:01 51° WNW 21:01:41 10° N
Cosmos 1464 Rocket 4.3 20:55:23 10° SSW 21:01:34 67° W 21:07:43 10° N
Okean 1 3.2 21:01:06 28° S 21:03:09 81° E 21:07:11 10° N
SPOT 5 3.1 21:00:20 25° SSE 21:03:35 89° W 21:08:49 10° NNW
Cosmos 2228 Rocket 3.2 21:01:41 29° SSE 21:03:49 59° E 21:08:18 10° NNE
ATLAS 2AS CENTAUR R/B 3.0 20:57:58 10° SSW 21:05:35 59° ESE 21:13:01 10° NE
Cosmos 2227 Rocket 3.2 21:00:32 10° NW 21:05:45 38° WSW 21:09:46 16° SSW
Meteor 1-19 Rocket 4.0 21:02:59 19° S 21:06:54 80° E 21:12:19 10° NNE
Cosmos 2344 3.5 21:00:27 10° SW 21:08:01 89° NW 21:15:42 10° NE
NOSS 3-4 (A) 4.3 21:04:51 10° WSW 21:10:23 49° NW 21:16:25 10° NNE
NOSS 3-4 (C) 4.3 21:04:54 10° WSW 21:10:28 50° NW 21:16:31 10° NNE
EXPRESS MD2 3.1 21:08:38 10° WNW 21:13:31 57° SW 21:14:03 49° S
Helios 1A Rocket 3.6 21:13:00 25° SSW 21:14:58 48° W 21:18:52 10° NNW
SAR-Lupe-4 4.2 21:12:33 10° NNE 21:15:54 37° E 21:15:54 37° E
SL-4 R/B 2.3 21:11:33 10° WNW 21:15:59 58° SW 21:17:09 42° SSE
Cosmos 1980 Rocket 2.2 21:10:30 10° SSW 21:16:07 83° WNW 21:21:50 10° NNE
Meteor 2-4 Rocket 4.0 21:14:53 30° SSE 21:17:33 53° E 21:23:04 10° NNE
Cosmos 1869 Rocket 3.5 21:13:21 10° N 21:17:51 86° W 21:19:40 36° S
Cosmos 1092 Rocket 4.0 21:11:46 10° N 21:17:58 73° E 21:21:07 31° SSE
Cosmos 2369 4.0 21:12:56 10° SSW 21:18:34 70° WNW 21:24:14 10° NNE
Terra 1.7 21:17:21 34° SSE 21:19:26 90° ENE 21:24:14 10° NNW
Cosmos 1503 Rocket 4.4 21:15:05 10° SSW 21:20:18 66° WNW 21:25:37 10° NNE
Nadezhda 4 Rocket 4.3 21:15:57 10° NNW 21:22:05 62° W 21:26:15 21° SSW
CZ-2C R/B 3.9 21:17:31 10° N 21:22:17 78° WNW 21:25:20 22° SSW
Cosmos 2322 Rocket 3.4 21:22:40 22° ESE 21:22:52 22° E 21:27:06 10° NE
Cosmos 1634 Rocket 4.0 21:19:55 29° SSE 21:23:03 62° E 21:29:10 10° NNE
ARIANE 5 R/B 2.6 21:22:17 40° SSE 21:23:52 83° ENE 21:28:25 10° NNW
Cosmos 921 Rocket 3.5 21:20:44 10° NNW 21:25:10 55° WSW 21:26:56 33° SSW
Cosmos 2292 Rocket 2.5 21:22:25 10° N 21:25:28 74° ENE 21:25:28 74° ENE
ISS -2.4 21:23:27 10° NW 21:26:34 35° NNE 21:27:56 24° ENE
Cosmos 1975 2.9 21:22:49 10° N 21:26:53 66° E 21:27:43 50° SE
Timation 2 Rocket 4.2 21:22:51 10° NNW 21:29:23 70° WSW 21:32:52 30° S
Cosmos 1844 Rocket 4.4 21:29:37 10° N 21:33:56 22° NE 21:37:15 14° E
ERS-1 Rocket 3.5 21:33:21 28° SSW 21:35:48 51° W 21:40:43 10° NNW
Cosmos 158 Rocket 4.0 21:31:26 10° NNW 21:36:33 70° ENE 21:38:17 42° SE
Cosmos 1697 Rocket 4.4 21:31:40 10° WSW 21:36:43 32° NW 21:41:48 10° N
SAR-Lupe-1 3.9 21:33:12 10° NNE 21:36:48 81° ESE 21:37:08 71° SSE
ATLAS 3B R/B 3.4 21:32:10 10° NNW 21:39:18 52° NE 21:44:09 22° ESE
Cosmos 1707 Rocket 3.5 21:41:57 50° S 21:43:04 83° E 21:47:30 10° N
Geosat 3.9 21:41:56 44° SSE 21:43:37 88° ENE 21:48:40 10° NNW
Cosmos 2227 4.3 21:38:39 10° NNW 21:44:24 70° ENE 21:46:32 39° SE
Cosmos 1378 3.5 21:46:30 46° SW 21:47:15 57° W 21:50:52 10° N
Cosmos 2026 Rocket 4.0 21:41:08 10° N 21:47:18 80° W 21:50:06 35° S
Meteor 1-18 Rocket 4.4 21:44:34 26° SSW 21:47:56 71° WNW 21:53:36 10° N
Meteor 2-15 Rocket 4.4 21:54:29 41° SSE 21:56:39 71° E 22:02:42 10° NNE
SL-24 R/B - RUBIN 2 3.7 21:53:39 10° NNW 21:58:02 69° NE 21:58:54 54° ESE
Cosmos 1733 3.9 21:55:12 10° N 21:58:38 39° ENE 21:58:38 39° ENE
SL-16 R/B 2.2 21:58:18 46° SSE 21:59:45 61° ESE 22:05:20 10° NNE
BREEZE-M DEB (TANK) 3.8 22:06:11 10° NW 22:08:12 29° NNE 22:08:14 29° NNE
Cosmos 1733 Rocket 3.3 22:11:08 10° NNW 22:15:32 61° W 22:16:08 55° SW
NOSS 2-1 (C) 3.8 22:17:00 42° NNE 22:17:00 42° NNE 22:19:16 10° NE
NOSS 2-1 (D) 3.8 22:18:00 42° NNE 22:18:00 42° NNE 22:20:17 10° NNE
Cosmos 44 Rocket 3.0 22:12:26 10° NW 22:17:09 75° WSW 22:17:35 68° SSW
GENESIS II 4.2 22:18:34 74° NNE 22:18:34 74° NNE 22:22:11 10° NE
Cosmos 1346 Rocket 3.6 22:17:42 39° WSW 22:18:27 44° WNW 22:22:19 10° N
Cosmos 990 Rocket 4.0 22:18:02 56° SE 22:18:39 61° ESE 22:23:50 10° NNE
ALOS 2 3.6 22:19:32 33° E 22:20:02 34° ENE 22:24:01 10° N
Cosmos 2266 Rocket 4.2 22:16:00 10° N 22:22:12 60° ENE 22:23:57 44° SE
Cosmos 1898 Rocket 3.9 22:22:00 44° ESE 22:22:13 44° ESE 22:27:16 10° NNE
Cosmos 1908 Rocket 3.7 22:19:52 10° N 22:24:10 57° E 22:24:15 57° E
Cosmos 1862 Rocket 4.0 22:24:33 48° WSW 22:25:22 57° WNW 22:29:47 10° N
USA 215 3.2 22:19:57 10° NE 22:26:32 87° SE 22:33:04 10° SW
SJ 16-02 3.6 22:23:30 10° WSW 22:26:50 21° WNW 22:30:11 10° N
Cosmos 2360 Rocket 2.4 22:28:41 48° ESE 22:29:05 48° ESE 22:34:31 10° NE
Cosmos 2279 Rocket 4.2 22:27:09 36° SSW 22:29:41 66° W 22:35:54 10° N
RESURS DK-1 4.4 22:30:11 12° WSW 22:33:09 25° NW 22:36:37 10° N
ATLAS CENTAUR R/B 3.4 22:32:01 10° NNW 22:36:13 28° NE 22:38:33 19° E
Cosmos 2263 Rocket 3.3 22:32:14 10° NW 22:37:03 30° WSW 22:38:10 28° SW
MINOTAUR IV R/B 4.4 22:37:11 86° S 22:37:15 88° ESE 22:41:46 10° NNE
Cosmos 1441 Rocket 3.8 22:38:24 47° WNW 22:38:24 47° WNW 22:41:53 10° N
Cosmos 1842 4.5 22:41:13 33° ENE 22:41:13 33° ENE 22:44:00 10° NNE
Iridium 4 Rocket 3.1 22:38:59 10° N 22:43:30 83° E 22:43:46 78° SE
Meteor 2-10 3.9 22:39:28 10° NNW 22:44:48 84° W 22:45:30 67° S
ERS-2 3.2 22:42:11 10° NNE 22:44:41 37° NE 22:44:41 37° NE
Cosmos 1066 Rocket 4.5 22:45:37 43° SW 22:47:24 64° WNW 22:53:05 10° N
ADEOS Rocket 3.3 22:48:07 39° ESE 22:49:39 50° ENE 22:55:18 10° N
Meteor 1-4 Rocket 3.8 22:47:37 10° NNW 22:50:04 34° WNW 22:50:04 34° WNW
ATLAS 2AS CENTAUR R/B 4.1 22:49:36 10° WSW 22:56:54 42° NW 23:03:57 10° NNE
Terra 4.4 22:57:21 10° W 22:57:51 10° W 22:58:20 10° W
Meteor 1-23 Rocket 4.2 22:59:47 61° S 23:00:53 85° E 23:06:45 10° NNE
USA 267 3.3 22:57:52 30° ESE 23:01:25 79° NE 23:07:58 10° NW
Cosmos 2333 Rocket 2.4 23:02:25 50° ESE 23:02:44 51° ESE 23:08:12 10° NE
Cosmos 1726 2.9 22:59:35 10° NNW 23:02:25 50° NNW 23:02:25 50° NNW
ISS -1.1 23:00:12 10° WNW 23:00:51 15° WNW 23:00:51 15° WNW
Cosmos 2322 4.3 23:05:35 39° ESE 23:05:46 39° ESE 23:11:03 10° NE
Spot 4 4.2 23:05:41 51° WSW 23:05:54 51° W 23:10:36 10° NNW
Cosmos 2322 Rocket 2.6 23:04:26 37° WSW 23:06:27 57° WNW 23:12:01 10° NNE
Cosmos 372 Rocket 3.9 23:15:05 65° ESE 23:15:15 66° ESE 23:20:22 10° NNE
Cosmos 1674 4.5 23:16:19 23° ENE 23:16:19 23° ENE 23:18:34 10° NNE
Cosmos 1626 4.2 23:17:18 20° ENE 23:17:18 20° ENE 23:19:15 10° NE
Cosmos 1766 4.2 23:13:14 10° NNW 23:16:21 40° WNW 23:16:21 40° WNW
CZ-4C R/B 3.7 23:10:33 10° NNW 23:17:24 48° NE 23:25:25 10° ESE
Cosmos 1844 Rocket 2.6 23:12:47 10° NNW 23:18:21 67° WSW 23:18:54 63° SSW
Okean 1-7 3.8 23:18:14 41° W 23:18:27 42° WNW 23:22:37 10° N
Cosmos 1900 4.2 23:18:38 78° SSW 23:18:59 89° ESE 23:24:08 10° NNE
ASTEX 1 4.0 23:15:20 10° NNE 23:20:01 43° E 23:20:16 43° E
Cosmos 1655 Rocket 4.4 23:14:15 10° NNW 23:20:17 52° W 23:21:44 43° SW
Cosmos 1867 4.4 23:26:47 36° ESE 23:26:47 36° ESE 23:31:30 10° NE
ATLAS 3B R/B 3.3 23:23:05 10° NW 23:30:01 43° WSW 23:31:23 40° SW
Cosmos 1844 3.7 23:26:39 10° NNW 23:32:24 63° WSW 23:33:01 59° SW
Cosmos 1242 Rocket 3.8 23:29:15 10° N 23:32:01 37° NE 23:32:01 37° NE
Cosmos 2219 Rocket 2.1 23:34:03 64° SSE 23:34:37 70° ESE 23:40:12 10° NNE
NOSS 3-1 (C) 4.2 23:27:45 10° NW 23:35:15 77° NE 23:40:36 26° SE
Cosmos 1937 Rocket 3.9 23:37:22 48° WSW 23:38:22 57° WNW 23:43:35 10° NNE
PSLV R/B 3.6 23:37:54 10° NNE 23:42:08 78° ENE 23:42:08 78° ENE
SL-08 ROCKET BODY 4.2 23:36:35 10° N 23:42:30 80° W 23:43:33 61° SSW
Cosmos 1707 3.2 23:43:43 59° N 23:43:43 59° N 23:46:57 10° N
SL-16 R/B 4.1 23:40:06 12° W 23:44:17 24° NW 23:48:53 10° N
Cosmos 1818 3.5 23:40:51 10° NW 23:46:17 68° WSW 23:46:33 66° SW
Cosmos 1680 Rocket 4.4 23:46:12 10° NW 23:50:54 34° W 23:50:54 34° W
Cosmos 1378 Rocket 4.2 23:51:09 45° E 23:51:09 45° E 23:55:19 10° NNE
Cosmos 1745 Rocket 4.4 23:46:11 10° N 23:52:18 53° ENE 23:54:26 37° SE
Cosmos 1470 3.9 23:49:41 10° NNW 23:52:31 36° WNW 23:52:31 36° WNW
ALOS 2 4.2 23:56:55 23° W 23:56:55 23° W 00:00:00 10° NW
